Airfield :
LOGIN :

Register | Disclaimer

   EN    FR    IT 

 










Legend :    VFR   Marginal VFR   IFR   Intensive IFR   Very Intensive IFR
Visi :
Ceiling :
>= 8 km
>= 3000ft
5 to 8 km
1000 to 3000 ft
1500m to 5 km
500 to 1000 ft
800 to 1500m
200 to 500 ft
< 800m
< 200 ft
Symbols :   Thunderstorms  Fog  Heavy snow  Heavy precipitations  Wind > 20 kt
SIGMETs :     Misc.  Thunderstorms  Icing  Turbulence  Mountain Waves  Volcanic Ashes







- Airport Elevation : 446 ft
- IATA code : VNE
- Download approach charts


LFRV - Vannes-Meucon

CURRENT METAR :
  • 221200Z AUTO 03016KT 9999 OVC012 15/12 Q1032

EXPIRED METARs :
  • 221130Z AUTO 03015KT 9999 OVC010 14/12 Q1033
  • 221100Z AUTO 03016KT 9999 OVC010 14/12 Q1033
  • 221030Z AUTO 03015KT 9999 OVC009 14/12 Q1032
  • 221000Z AUTO 03016KT 9999 OVC008 14/12 Q1032
  • 220930Z AUTO 02014KT 9999 OVC008 14/13 Q1032
  • 220900Z AUTO 02011KT 9999 OVC008 14/12 Q1032

TAF N/A
No reported NOTAMs for that airfield.



MET'MAP, your aeronautical weather chart ! - Copyright ORBIFLY December 2007 - Disclaimer

ORBIFLY MET'MAP TEAM :

Programming & Development : Alexandra Zaïnal
Concept & Development : Baudouin d'Aumeries
Co-Development & Prog : Marc-Olivier Méhu
Technical & hardware support : Manuel Goepfert

Contact : metmap@orbifly.com




SOURCES & CREDITS :

   NOAA